Weather in Firozabad

India     27°08′54″N   78°23′30″E
temp.,
°C
wind,
m/s
gust,
m/s
humid.,
%
clouds,
%
prec.,
mm/h
press.,
hPa
HPBL,
m
6 march, sat
sat623:30+21wnw48180 0.0 1010111
02:30+19nw34200 0.0 100967
05:30+17wnw34230 0.0 101050
08:30+21w46200 0.0 1012216
11:30+32w68100 0.0 10121754
14:30+35wnw61060 0.0 10082979
17:30+32nnw4690 0.0 1006165
20:30+24nne23110 0.0 100824
7 march, sun
sun723:30+22s11130 0.0 100824
02:30+21s22140 0.0 100723
05:30+19sw11150 0.0 100723
08:30+25se22140 0.0 1011103
11:30+34ssw44100 0.0 1010829
14:30+38w56110 0.0 10063791
17:30+35w47140 0.0 1004240
20:30+28ssw23170 0.0 100624
8 march, mon
mon823:30+25s22190 0.0 100724
02:30+22sse33240 0.0 100725
05:30+20nw01270 0.0 100823
08:30+25se23220 0.0 1011151
11:30+35nne01150 0.0 1011948
14:30+37nw35110 0.0 10073934
17:30+35nnw33140 0.0 100677
20:30+27n342555 0.0 100865
9 march, tue
tue923:30+25ne232828 0.0 100824
02:30+24ese23280 0.0 100824
05:30+21nw22330 0.0 100923
08:30+26e22250 0.0 1011154
11:30+35ese23140 0.0 10111096
14:30+38sw3590 0.0 10074779
17:30+36w58114 0.0 1005377
20:30+27wsw45110 0.0 100755
10 march, wed
wed1023:30+24wsw22130 0.0 100825
02:30+22wsw23160 0.0 100723
05:30+21wnw23180 0.0 100823
08:30+26w23160 0.0 1010156
11:30+36wnw11100 0.0 1010955
14:30+38wsw5670 0.0 10064428
17:30+35wsw3590 0.0 1004146
20:30+28wsw48130 0.0 1006130